User: anonymous
Location: Unspecified
(0.0000°N, 0.0000°E)
Time: 03:34:13
(UTC+02:00)
Language:

H-2A R/B - Orbit

View from above orbital plane
View from above orbital plane
View from above satellite
View from above satellite

Ground track
Ground track

The orbit data is extracted from the following two-line orbital elements,

1 28932U 06002B   14205.49037009  .00000573  00000-0  64147-4 0  7502
2 28932 098.2983 067.6180 0096600 170.9827 252.0329 14.87991961460130
Epoch (UTC): 24 July 2014 11:46:07
Eccentricity: 0.0096600
inclination: 98.2983°
perigee height: 537 km
apogee height: 671 km
right ascension of ascending node: 67.6180°
argument of perigee: 170.9827°
revolutions per day: 14.87991961
mean anomaly at epoch: 252.0329°
orbit number at epoch: 46013

The dashed part of the orbit path shows where the satellite is in the earth's shadow,  

DLR